Location: Rounton
(54.4000°N, 1.3500°W)
Time: 17:45:46
(UTC+01:00)

S-56A Canister/Altair - Pass Details

Date: 16 September 2024
Orbit: 636 x 2487 km, 38.9° (Epoch: 06 October)

Event Time Altitude Azimuth Distance (km) Brightness Sun altitude
Rises 21:56:40 0° 246° (WSW) 3,598 11.3 -22.0°
Reaches altitude 10° 21:59:23 10° 233° (SW) 2,871 10.6 -22.3°
Maximum altitude 22:05:02 26° 180° (S) 2,357 9.6 -22.9°
Enters shadow 22:05:32 26° 175° (S) 2,400 9.6 -23.0°
Drops below altitude 10° 22:12:40 10° 130° (SE) 3,972 - -23.7°
Sets 22:17:12 0° 120° (ESE) 5,296 - -24.2°
